TimeIST,TemperatureF,Dew PointF,Humidity,Sea Level PressureIn,VisibilityMPH,Wind Direction,Wind SpeedMPH,Gust SpeedMPH,PrecipitationIn,Events,Conditions,WindDirDegrees,DateUTC
1:00 AM,66.2,64.4,94,29.92,2.5,Calm,Calm,-,N/A,,Haze,0,2012-10-17 19:30:00
2:00 AM,66.2,64.4,94,29.89,2.5,Calm,Calm,-,N/A,,Haze,0,2012-10-17 20:30:00
4:00 AM,66.2,64.4,94,29.89,1.6,Calm,Calm,-,N/A,,Mist,0,2012-10-17 22:30:00
5:00 AM,66.2,62.6,88,29.92,1.6,Calm,Calm,-,N/A,,Mist,0,2012-10-17 23:30:00
6:00 AM,66.2,62.6,88,29.92,1.2,Calm,Calm,-,N/A,,Mist,0,2012-10-18 00:30:00
8:30 AM,74,67,74,30.01,1,Calm,Calm,,,,Mist,,2012-10-18 03:00:00
8:30 AM,75.2,68.0,78,30.01,1.2,Calm,Calm,-,N/A,,Mist,0,2012-10-18 03:00:00
9:00 AM,77.0,68.0,74,30.01,1.2,Calm,Calm,-,N/A,,Mist,0,2012-10-18 03:30:00
10:30 AM,84.2,68.0,58,30.01,2.5,Variable,2.3,-,N/A,,Haze,0,2012-10-18 05:00:00
11:00 AM,86.0,68.0,55,29.98,2.5,WNW,3.5,-,N/A,,Haze,290,2012-10-18 05:30:00
12:00 PM,87.8,64.4,46,29.95,2.5,NW,4.6,-,N/A,,Haze,320,2012-10-18 06:30:00
1:30 PM,89.6,62.6,40,29.92,3.1,NW,4.6,-,N/A,,Haze,310,2012-10-18 08:00:00
2:30 PM,89.6,68.0,49,29.89,3.7,NW,5.8,-,N/A,,Partly Cloudy,320,2012-10-18 09:00:00
3:00 PM,89.6,68.0,49,29.86,3.7,NW,5.8,-,N/A,,Partly Cloudy,320,2012-10-18 09:30:00
4:00 PM,87.8,66.2,49,29.86,3.7,NW,4.6,-,N/A,,Unknown,310,2012-10-18 10:30:00
5:00 PM,86.0,68.0,55,29.86,3.7,NW,3.5,-,N/A,,Unknown,320,2012-10-18 11:30:00
6:00 PM,82.4,68.0,62,29.86,3.1,Calm,Calm,-,N/A,,Haze,0,2012-10-18 12:30:00
7:00 PM,77.0,69.8,78,29.89,3.1,Calm,Calm,-,N/A,,Haze,0,2012-10-18 13:30:00
8:00 PM,73.4,68.0,83,29.89,2.5,Calm,Calm,-,N/A,,Haze,0,2012-10-18 14:30:00
11:00 PM,69.8,66.2,88,29.89,1.6,Calm,Calm,-,N/A,,Mist,0,2012-10-18 17:30:00